Location: Baix
(44.7118°N, 4.7648°E)
Time: 03:23:47
(UTC+00:00)

Cosmos 1544 Rocket - Pass Details

Date: 07 August 2020
Orbit: 603 x 632 km, 82.5° (Epoch: 25 September)

Event Time Altitude Azimuth Distance (km) Brightness Sun altitude
Exits shadow 02:19:57 27° 161° (SSE) 1,227 4.8 -19.7°
Maximum altitude 02:22:13 56° 94° (E) 756 4.1 -19.5°
Drops below altitude 10° 02:26:37 10° 17° (NNE) 2,024 7.2 -19.0°
Sets 02:28:53 0° 13° (NNE) 2,936 8.1 -18.7°
